Location: Amherst
(42.5000°N, 72.5000°W)
Time: 01:15:10
(UTC-04:00)

ISS - Pass Details

Date: 23 May 2018
Orbit: 402 x 407 km, 51.6° (Epoch: 21 May)

Event Time Altitude Azimuth Distance (km) Brightness Sun altitude
Rises 20:41:35 0° 226° (SW) 2,309 0.2 -5.3°
Reaches altitude 10° 20:43:40 10° 223° (SW) 1,452 -0.9 -5.6°
Maximum altitude 20:46:53 61° 142° (SE) 460 -3.8 -6.1°
Drops below altitude 10° 20:50:06 10° 62° (ENE) 1,458 -1.3 -6.6°
Sets 20:52:12 0° 59° (ENE) 2,320 -0.2 -6.9°
